Regional Weather Roundup
Issued by NWS New Orleans/Baton Rouge, LA

Home | Current Version | Previous Version | Text Only | Print | Product List | Glossary On
Versions: 1 2 3 4 5 6 7 8 9 10 11 12 13 14 15 16 17 18 19 20 21 22 23 24 25 26 27 28
000
ASUS44 KLIX 260906
RWRLIX
NEW ORLEANS REGIONAL WEATHER ROUNDUP
NATIONAL WEATHER SERVICE NEW ORLEANS LA
400 AM CDT THU APR 26 2018

NOTE: "FAIR" INDICATES FEW OR NO CLOUDS BELOW 12,000 FEET WITH NO
      SIGNIFICANT WEATHER AND/OR OBSTRUCTIONS TO VISIBILITY.
      SKY/WX - SKY CONDITION AND SIGNIFICANT WEATHER.
      TMP - AIR TEMPERATURE.     DP    - DEWPOINT TEMPERATURE.
      RH  - RELATIVE HUMIDITY.   PRES  - PRESSURE.
      HI  - HEAT INDEX.          WCI   - WIND CHILL INDEX.

*  THESE STATIONS ARE NOT NWS OR FAA STATIONS AND ARE NOT UNDER
   NWS QUALITY CONTROL.

LAZ038-040-048-061>063-065>067-069-261000-
SOUTHEAST LOUISIANA

CITY           SKY/WX    TMP DP  RH WIND       PRES   REMARKS
N.O. INTL ARPT FAIR      67  65  93 SW9       29.87F
N.O. LAKEFRONT FAIR      69  64  84 SW13      29.87F
N.O. DOWNTOWN* FAIR      69  63  81 VRB5      29.88F
RESERVE*       FAIR      69  63  82 W7        29.87S
SLIDELL        FAIR      68  62  81 SW5       29.85F
BATON ROUGE    TSTM      61  59  93 NW7       29.90R FOG
BOOTHVILLE     FAIR      72  66  81 W10       29.90R
BELLE CHASSE   FAIR      67  67 100 SW7       29.87F
BOGALUSA*      CLOUDY    65  60  83 W3        29.86S
GALLIANO*      FAIR      69  62  78 W10       29.89F
NEW ROADS*     CLOUDY    61  59  94 NW14      29.91S
GONZALES*      CLOUDY    69  63  80 SW6       29.87R
HAMMOND*       MOCLDY    66  61  82 W7        29.85F
HOUMA*         FAIR      66  64  94 W3        29.89S
PORT FOURCHON* SUNNY     72  66  83 W13G20    29.90F

$$

MSZ070-080>082-261000-
SOUTHERN MISSISSIPPI

CITY           SKY/WX    TMP DP  RH WIND       PRES   REMARKS
MCCOMB         LGT RAIN  62  60  93 NW9       29.87R
GULFPORT       FAIR      64  61  90 SW3       29.85S
BILOXI         FAIR      68  63  83 W7        29.85S
PASCAGOULA     FAIR      57  55  93 CALM      29.86F

$$

COASTAL OBSERVATIONS
LAKE AND NEARSHORE STATIONS

STATION/POSITION TIME  SKY/WX   TEMP    WIND        PRES    WAVE
                                AIR SEA DIR/SP/G            HT/PER
                 (UTC)          (F)     (DEG/KT/KT) (MB)    (FT/S)
WAVELAND YACHT   0836            67 73  250/  6/  9 1011.3
GRAND ISLE       0848            71 73  270/ 13/ 16 1012.0
SOUTHWEST PASS   0848            70 59  290/ 15/ 21 1012.8
NEW CANAL        0836            68 74  220/  7/ 10 1011.5
SHELL BEACH      0836            68 76  230/ 10/ 12 1011.8

OFFSHORE STATIONS

STATION/POSITION TIME  SKY/WX   TEMP    WIND        PRES    WAVE
                                AIR SEA DIR/SP/G            HT/PER
                 (UTC)          (F)     (DEG/KT/KT) (MB)    (FT/S)
64 S DAUPHIN ISL 0850               73  240/ 10/ 12 1012.0    1/ 3

$$





USA.gov is the U.S. government's official web portal to all federal, state and local government web resources and services.